Estación municipal de Les Masies de Roda (Osona, Ter)

Consulta los datos en tiempo real de la estación municipal de Les Masies de Roda





Hora UTC 05:00
Temperatura 13.3 ºC
Suelo 15 cm 10.7 ºC
Humedad 89.6 %
Presión 1018.5 hPa
Pluja 0.0 mm
Velocidad viento 0.0 km/h
Dirección viento NNE
Radiación solar 270.3 W/m²

Datos diarios 2026-08-31



Hora UTC (invierno +1h; verano +2h)
Temperatura (ºC) Humedad (%) Presión (hPa) Velocidad viento (km/h) Precipitación (mm) Radiación solar (W/m²)
Hora UTC Aire Suelo 15 cm Humedad Presión Vel. Dir. Vel. Max Dir. Intent. máx 5 min. Rad. Sol.
00:05 16.8 13.7 76.3 1018.2 0.0 NNE 0.0 WNW 0.0 276.1
00:10 16.8 13.6 76.9 1018.2 0.0 NNE 0.0 WNW 0.0 283.9
00:15 16.5 13.5 77.2 1018.1 1.2 NE 2.8 NE 0.0 276.5
00:20 16.5 13.5 77.1 1018.1 0.1 NE 1.8 NE 0.0 271.2
00:25 16.0 13.4 79.0 1018.1 2.8 NW 3.9 NW 0.0 280.1
00:30 15.7 13.3 81.1 1018.2 3.2 NW 3.9 WNW 0.0 284.2
00:35 15.6 13.1 81.9 1018.1 0.6 NNW 2.5 NNW 0.0 291.4
00:40 15.7 13.0 81.4 1018.1 0.0 NNE 0.0 NNW 0.0 284.0
00:45 15.8 13.0 81.4 1018.1 0.0 NNE 0.0 NNW 0.0 258.2
00:50 16.1 13.1 79.2 1018.1 0.0 NNE 0.0 N 0.0 278.7
00:55 16.3 13.2 78.0 1018.0 0.0 NNE 0.0 NNE 0.0 287.7
01:00 15.8 13.1 80.0 1018.2 0.9 WNW 2.8 WNW 0.0 275.4
01:05 15.5 13.0 82.1 1018.1 0.0 NNE 0.0 WNW 0.0 275.5
01:10 15.5 12.9 82.3 1018.2 0.0 NNE 0.0 WNW 0.0 294.2
01:15 15.8 12.9 80.6 1018.1 2.3 SE 4.6 S 0.0 269.7
01:20 15.9 12.9 79.5 1018.2 1.0 W 3.9 S 0.0 274.6
01:25 15.6 12.8 80.9 1018.1 0.0 NNE 0.0 WNW 0.0 311.3
01:30 15.6 12.8 80.2 1018.3 0.0 NNE 0.0 N 0.0 270.5
01:35 15.6 12.7 81.3 1018.1 2.2 ENE 3.9 ENE 0.0 278.0
01:40 15.8 12.6 80.0 1018.3 0.9 E 3.5 ENE 0.0 267.9
01:45 15.3 12.6 80.8 1018.2 1.6 N 3.2 NNW 0.0 267.7
01:50 15.1 12.6 83.7 1018.3 2.3 N 3.5 NNW 0.0 259.1
01:55 15.2 12.5 83.0 1018.2 2.2 N 3.2 NNW 0.0 268.0
02:00 15.2 12.5 82.7 1018.4 2.9 NNW 5.0 NNW 0.0 263.3
02:05 15.0 12.3 83.9 1018.3 3.1 N 5.0 N 0.0 257.4
02:10 15.4 12.4 82.1 1018.4 3.1 NNE 5.3 N 0.0 258.9
02:15 15.5 12.6 80.6 1018.2 0.3 N 3.2 N 0.0 277.4
02:20 15.0 12.6 82.9 1018.3 2.3 NNW 3.5 N 0.0 276.2
02:25 14.7 12.5 84.1 1018.2 3.7 NW 5.3 NW 0.0 270.8
02:30 14.6 12.4 84.2 1018.2 1.3 NW 4.6 NW 0.0 270.4
02:35 14.5 12.2 84.3 1018.3 0.1 NW 1.4 NW 0.0 290.3
02:40 14.5 12.1 84.7 1018.3 0.0 NNE 0.0 NW 0.0 273.4
02:45 14.7 12.0 84.1 1018.4 0.2 W 2.5 W 0.0 293.5
02:50 14.5 11.9 84.1 1018.3 3.0 WSW 3.9 WSW 0.0 289.6
02:55 14.2 11.8 85.8 1018.4 2.7 SW 3.9 SW 0.0 276.7
03:00 14.1 11.7 86.5 1018.2 3.5 SSW 5.7 SSW 0.0 277.5
03:05 14.2 11.7 87.4 1018.4 1.3 SSW 3.2 SSW 0.0 265.8
03:10 14.6 11.8 85.2 1018.2 0.0 NNE 0.0 SSW 0.0 282.2
03:15 14.7 11.8 84.0 1018.4 0.1 NNE 1.4 NNE 0.0 282.6
03:20 14.5 11.8 85.0 1018.3 1.7 SE 3.2 SE 0.0 272.9
03:25 14.6 11.7 84.5 1018.4 1.9 NE 3.5 NNW 0.0 300.5
03:30 14.2 11.6 85.1 1018.3 0.5 NE 2.1 ENE 0.0 284.1
03:35 14.2 11.5 86.5 1018.4 2.1 SE 4.6 SSE 0.0 301.5
03:40 14.4 11.5 83.4 1018.3 2.7 WSW 4.6 SSW 0.0 302.3
03:45 14.0 11.3 86.5 1018.5 1.9 WNW 3.2 WNW 0.0 283.1
03:50 13.8 11.3 87.7 1018.4 0.5 WNW 2.5 WNW 0.0 265.6
03:55 13.8 11.2 88.0 1018.5 0.0 NNE 0.0 WNW 0.0 275.3
04:00 13.8 11.2 87.5 1018.4 1.4 NNE 3.5 NNE 0.0 281.8
04:05 13.9 11.2 87.5 1018.5 1.3 NNE 2.5 NNE 0.0 269.6
04:10 13.9 11.2 86.8 1018.4 1.4 NNW 3.2 NNW 0.0 269.5
04:15 13.8 11.1 87.1 1018.5 0.0 NNW 1.4 NNW 0.0 286.1
04:20 13.6 11.0 87.7 1018.4 0.4 NW 3.2 NW 0.0 290.4
04:25 13.4 10.9 88.8 1018.5 2.1 NW 2.8 NW 0.0 281.2
04:30 13.5 11.0 89.7 1018.4 2.3 N 3.9 N 0.0 277.8
04:35 13.7 11.0 88.6 1018.5 0.0 NNE 0.0 NNE 0.0 263.1
04:40 13.6 11.0 88.9 1018.4 0.0 NNE 0.0 NNE 0.0 261.3
04:45 13.3 10.9 89.1 1018.5 1.0 W 2.5 W 0.0 270.9
04:50 13.2 10.8 90.4 1018.4 0.2 W 2.1 W 0.0 270.0
04:55 13.2 10.8 90.4 1018.5 0.0 NNE 0.0 W 0.0 291.0
05:00 13.3 10.7 89.6 1018.5 0.0 NNE 0.0 NW 0.0 270.3
Máxima 16.8 13.7 90.4 1018.5 3.7 NW 5.7 SSW 0.0 311.3
Mínima 13.2 10.7 76.3 1018.0
Total 0.0